Location: Eaton Estates
(41.3089°N, 82.0057°W)
Time: 15:39:05
(UTC+00:00)

Cosmos 1674 - Pass Details

Date: 17 June 2021
Orbit: 494 x 514 km, 82.5° (Epoch: 01 August)

Event Time Altitude Azimuth Distance (km) Brightness Sun altitude
Exits shadow 02:41:16 21° 176° (S) 1,144 4.0 -14.5°
Maximum altitude 02:43:35 70° 96° (E) 533 2.5 -14.8°
Drops below altitude 10° 02:47:18 10° 13° (NNE) 1,702 5.9 -15.2°
Sets 02:49:25 0° 11° (N) 2,588 6.9 -15.5°
